When you browse on this site, cookies collect data to enhance your experience and personalize the content and advertising you see.
Visit our Privacy Policy to learn more. By continuing to use the site, you agree to this use of cookies and data.
  • In United Kingdom
  • List of Countries
  • For 7 days
  • Water Temperature
  • Weather Map
  • Weather Widgets
  • user-avatar
    Login

    Hourly Weather Vecses

    Today, 29 January, Wednesday

    Time Temperature Precipitation Wind Pressure Humidity
    00:00 +1°C° 0.2 mm 4 mps 743 mmHg 88%
    01:00 +1°C° 0 mm 4 mps 743 mmHg 93%
    02:00 0°C° 0 mm 4 mps 743 mmHg 89%
    03:00 0°C° 0 mm 4 mps 743 mmHg 85%
    04:00 0°C° 0 mm 4 mps 744 mmHg 82%
    05:00 0°C° 0 mm 4 mps 744 mmHg 82%
    06:00 0°C° 0 mm 4 mps 745 mmHg 83%
    07:00 0°C° 0 mm 3 mps 745 mmHg 89%
    08:00 0°C° 0 mm 4 mps 745 mmHg 87%
    09:00 +1°C° 0 mm 4 mps 745 mmHg 84%
    10:00 +2°C° 0 mm 5 mps 746 mmHg 82%
    11:00 +2°C° 0.2 mm 5 mps 746 mmHg 82%
    12:00 +2°C° 0.2 mm 5 mps 746 mmHg 81%
    13:00 +4°C° 0.2 mm 4 mps 746 mmHg 81%
    14:00 +3°C° 0.2 mm 4 mps 746 mmHg 82%
    15:00 +3°C° 0.2 mm 4 mps 746 mmHg 82%
    16:00 +1°C° 0.2 mm 4 mps 746 mmHg 83%
    17:00 +1°C° 0 mm 4 mps 746 mmHg 85%
    18:00 +1°C° 0 mm 3 mps 747 mmHg 86%
    19:00 +1°C° 0 mm 2 mps 747 mmHg 88%
    20:00 +1°C° 0 mm 2 mps 748 mmHg 85%
    21:00 0°C° 0 mm 3 mps 748 mmHg 82%
    22:00 0°C° 0 mm 3 mps 748 mmHg 80%
    23:00 -1°C° 0.5 mm 4 mps 748 mmHg 84%

    Tomorrow, 30 January, Thursday

    Time Temperature Precipitation Wind Pressure Humidity
    00:00 -1°C° 0.5 mm 5 mps 749 mmHg 88%
    01:00 -2°C° 0.5 mm 6 mps 750 mmHg 92%
    02:00 -1°C° 0.2 mm 5 mps 750 mmHg 91%
    03:00 -1°C° 0.2 mm 5 mps 750 mmHg 90%
    04:00 -1°C° 0.2 mm 4 mps 750 mmHg 88%
    05:00 -1°C° 0 mm 4 mps 751 mmHg 87%
    06:00 0°C° 0 mm 3 mps 751 mmHg 85%
    07:00 -1°C° 0 mm 3 mps 752 mmHg 84%
    08:00 0°C° 0 mm 3 mps 752 mmHg 80%
    09:00 0°C° 0 mm 4 mps 752 mmHg 76%
    10:00 +1°C° 0 mm 4 mps 752 mmHg 72%
    11:00 +1°C° 0.1 mm 5 mps 752 mmHg 77%
    12:00 +1°C° 0.1 mm 5 mps 752 mmHg 83%
    13:00 +1°C° 0.1 mm 5 mps 752 mmHg 88%
    14:00 +2°C° 0 mm 5 mps 752 mmHg 83%
    15:00 +3°C° 0 mm 4 mps 751 mmHg 78%
    16:00 +3°C° 0 mm 3 mps 751 mmHg 73%
    17:00 +3°C° 0 mm 3 mps 751 mmHg 74%
    18:00 +3°C° 0 mm 3 mps 751 mmHg 76%
    19:00 +2°C° 0 mm 3 mps 751 mmHg 77%
    20:00 +2°C° 0 mm 3 mps 750 mmHg 78%
    21:00 +2°C° 0 mm 3 mps 750 mmHg 79%
    22:00 +1°C° 0 mm 3 mps 750 mmHg 80%
    23:00 +1°C° 0 mm 3 mps 749 mmHg 82%

    Day after tomorrow, 31 January, Friday

    Time Temperature Precipitation Wind Pressure Humidity
    00:00 +2°C° 0 mm 2 mps 749 mmHg 83%
    01:00 +1°C° 0 mm 2 mps 749 mmHg 85%
    02:00 +2°C° 0 mm 2 mps 748 mmHg 86%
    03:00 +1°C° 0 mm 3 mps 748 mmHg 87%
    04:00 +2°C° 0 mm 3 mps 747 mmHg 89%
    05:00 +2°C° 0.1 mm 3 mps 747 mmHg 89%
    06:00 +3°C° 0.1 mm 3 mps 747 mmHg 89%
    07:00 +3°C° 0.1 mm 3 mps 747 mmHg 89%
    08:00 +4°C° 0.1 mm 4 mps 747 mmHg 86%
    09:00 +4°C° 0.1 mm 4 mps 746 mmHg 83%
    10:00 +3°C° 0.1 mm 5 mps 746 mmHg 80%
    11:00 +5°C° 0 mm 6 mps 746 mmHg 76%
    12:00 +6°C° 0 mm 7 mps 746 mmHg 72%
    13:00 +9°C° 0 mm 8 mps 746 mmHg 68%
    14:00 +9°C° 0 mm 7 mps 746 mmHg 71%
    15:00 +9°C° 0 mm 7 mps 746 mmHg 74%
    16:00 +10°C° 0 mm 6 mps 746 mmHg 76%
    17:00 +9°C° 0 mm 5 mps 747 mmHg 80%
    18:00 +8°C° 0 mm 4 mps 748 mmHg 83%
    19:00 +8°C° 0 mm 3 mps 748 mmHg 86%
    20:00 +8°C° 0 mm 3 mps 749 mmHg 86%
    21:00 +7°C° 0 mm 3 mps 749 mmHg 87%
    22:00 +7°C° 0 mm 3 mps 749 mmHg 88%
    23:00 +7°C° 0 mm 3 mps 750 mmHg 89%

    1 February, Saturday

    Time Temperature Precipitation Wind Pressure Humidity
    00:00 +5°C° 0 mm 3 mps 750 mmHg 90%
    01:00 +5°C° 0 mm 3 mps 750 mmHg 90%
    02:00 +5°C° 0 mm 3 mps 750 mmHg 91%
    03:00 +5°C° 0 mm 3 mps 750 mmHg 91%
    04:00 +5°C° 0 mm 3 mps 750 mmHg 91%
    05:00 +6°C° 0 mm 2 mps 750 mmHg 90%
    06:00 +5°C° 0 mm 2 mps 750 mmHg 90%
    07:00 +5°C° 0 mm 2 mps 750 mmHg 89%
    08:00 +6°C° 0 mm 2 mps 750 mmHg 85%
    09:00 +7°C° 0 mm 2 mps 750 mmHg 81%
    10:00 +8°C° 0 mm 3 mps 751 mmHg 76%
    11:00 +10°C° 0 mm 3 mps 750 mmHg 73%
    12:00 +11°C° 0 mm 3 mps 750 mmHg 69%
    13:00 +12°C° 0 mm 4 mps 749 mmHg 65%
    14:00 +12°C° 0 mm 4 mps 749 mmHg 69%
    15:00 +11°C° 0 mm 4 mps 749 mmHg 73%
    16:00 +11°C° 0 mm 4 mps 748 mmHg 77%
    17:00 +10°C° 0 mm 3 mps 748 mmHg 80%
    18:00 +9°C° 0 mm 3 mps 748 mmHg 84%
    19:00 +9°C° 0 mm 3 mps 748 mmHg 87%
    20:00 +8°C° 0 mm 3 mps 748 mmHg 88%
    21:00 +8°C° 0 mm 2 mps 747 mmHg 89%
    22:00 +8°C° 0 mm 2 mps 747 mmHg 90%
    23:00 +8°C° 0.3 mm 3 mps 747 mmHg 90%

    2 February, Sunday

    Time Temperature Precipitation Wind Pressure Humidity
    00:00 +8°C° 0.3 mm 3 mps 747 mmHg 91%
    01:00 +8°C° 0.3 mm 4 mps 747 mmHg 92%
    02:00 +8°C° 0.1 mm 5 mps 747 mmHg 86%
    03:00 +8°C° 0.1 mm 6 mps 747 mmHg 80%
    04:00 +8°C° 0.1 mm 7 mps 748 mmHg 74%
    05:00 +6°C° 0 mm 7 mps 749 mmHg 72%
    06:00 +6°C° 0 mm 7 mps 749 mmHg 70%
    07:00 +5°C° 0 mm 8 mps 750 mmHg 69%
    08:00 +5°C° 0 mm 8 mps 751 mmHg 65%
    09:00 +6°C° 0 mm 8 mps 752 mmHg 61%
    10:00 +6°C° 0 mm 9 mps 753 mmHg 57%
    11:00 +6°C° 0 mm 9 mps 753 mmHg 57%
    12:00 +6°C° 0 mm 8 mps 753 mmHg 56%
    13:00 +7°C° 0 mm 8 mps 754 mmHg 55%
    14:00 +6°C° 0 mm 7 mps 754 mmHg 57%
    15:00 +7°C° 0 mm 6 mps 754 mmHg 58%
    16:00 +7°C° 0 mm 4 mps 754 mmHg 60%
    17:00 +6°C° 0 mm 4 mps 754 mmHg 63%
    18:00 +5°C° 0 mm 3 mps 755 mmHg 66%
    19:00 +6°C° 0 mm 2 mps 755 mmHg 70%
    20:00 +6°C° 0 mm 2 mps 755 mmHg 70%
    21:00 +5°C° 0 mm 2 mps 755 mmHg 71%
    22:00 +5°C° 0 mm 2 mps 755 mmHg 72%
    23:00 +4°C° 0.1 mm 3 mps 755 mmHg 76%

    3 February, Monday

    Time Temperature Precipitation Wind Pressure Humidity
    00:00 +5°C° 0.1 mm 3 mps 755 mmHg 79%
    01:00 +5°C° 0.1 mm 3 mps 755 mmHg 83%
    02:00 +5°C° 0.1 mm 4 mps 755 mmHg 82%
    03:00 +5°C° 0.1 mm 4 mps 754 mmHg 81%
    04:00 +5°C° 0.1 mm 5 mps 754 mmHg 80%
    05:00 +6°C° 0.1 mm 5 mps 754 mmHg 80%
    06:00 +6°C° 0.1 mm 5 mps 754 mmHg 80%
    07:00 +6°C° 0.1 mm 5 mps 754 mmHg 80%
    08:00 +6°C° 0 mm 5 mps 754 mmHg 77%
    09:00 +7°C° 0 mm 5 mps 754 mmHg 74%
    10:00 +8°C° 0 mm 5 mps 754 mmHg 72%
    11:00 +8°C° 0.1 mm 5 mps 754 mmHg 75%
    12:00 +9°C° 0.1 mm 5 mps 754 mmHg 78%
    13:00 +9°C° 0.1 mm 6 mps 754 mmHg 81%
    14:00 +9°C° 0.1 mm 5 mps 754 mmHg 83%
    15:00 +8°C° 0.1 mm 5 mps 754 mmHg 85%
    16:00 +8°C° 0.1 mm 5 mps 754 mmHg 87%
    17:00 +8°C° 0 mm 4 mps 754 mmHg 87%
    18:00 +8°C° 0 mm 4 mps 754 mmHg 87%
    19:00 +8°C° 0 mm 3 mps 755 mmHg 87%
    20:00 +8°C° 0 mm 3 mps 755 mmHg 88%
    21:00 +8°C° 0 mm 2 mps 755 mmHg 89%
    22:00 +7°C° 0 mm 2 mps 755 mmHg 90%
    23:00 +7°C° 0 mm 2 mps 755 mmHg 89%
    Show more